DAL562 KBOI-KSLC

Flight info

Callsign DAL562
Flight time 0h 41m
Altitude 33000
Route ROARR BYI SKEES6
Aircraft B738/M-SDE2E3FGHIRWXY/LB1

Departure

Time 2026-05-09 03:47
Airport Boise Air Terminal/Gowen Field (KBOI)

Arrival

Time 2026-05-09 04:28
Airport Salt Lake City International Airport (KSLC)
Time Latitude Longitude Altitude Speed Heading
2026-05-09 03:28 43.56675 -116.21928 2880 ft 0 kts 25°
2026-05-09 03:40 43.56665 -116.21935 2881 ft 2 kts 25°
2026-05-09 03:40 43.56650 -116.21945 2881 ft 2 kts 25°
2026-05-09 03:40 43.56635 -116.21954 2881 ft 2 kts 47°
2026-05-09 03:40 43.56628 -116.21974 2881 ft 2 kts 99°
2026-05-09 03:41 43.56630 -116.21984 2881 ft 0 kts 117°
2026-05-09 03:43 43.56630 -116.21983 2880 ft 1 kts 117°
2026-05-09 03:43 43.56618 -116.21950 2880 ft 6 kts 117°
2026-05-09 03:43 43.56595 -116.21886 2880 ft 9 kts 115°
2026-05-09 03:44 43.56556 -116.21771 2880 ft 17 kts 117°
2026-05-09 03:44 43.56470 -116.21702 2880 ft 14 kts 138°
2026-05-09 03:44 43.56421 -116.21577 2880 ft 17 kts 115°
2026-05-09 03:44 43.56362 -116.21404 2881 ft 21 kts 115°
2026-05-09 03:45 43.56300 -116.21223 2881 ft 21 kts 115°
2026-05-09 03:45 43.56240 -116.21049 2881 ft 20 kts 115°
2026-05-09 03:45 43.56190 -116.20902 2881 ft 12 kts 115°
2026-05-09 03:45 43.56129 -116.20874 2881 ft 9 kts 202°
2026-05-09 03:46 43.56069 -116.20912 2881 ft 10 kts 205°
2026-05-09 03:46 43.56000 -116.20956 2880 ft 11 kts 205°
2026-05-09 03:46 43.55931 -116.21004 2880 ft 11 kts 215°
2026-05-09 03:46 43.55934 -116.21131 2880 ft 27 kts 295°
2026-05-09 03:47 43.56119 -116.21670 2881 ft 95 kts 295°
2026-05-09 03:47 43.56488 -116.22758 2883 ft 152 kts 295°
2026-05-09 03:47 43.56980 -116.24169 3290 ft 169 kts 296°
2026-05-09 03:47 43.57494 -116.25720 3905 ft 181 kts 296°
2026-05-09 03:48 43.57967 -116.27301 4826 ft 172 kts 295°
2026-05-09 03:48 43.58125 -116.28921 5505 ft 182 kts 262°
2026-05-09 03:48 43.57419 -116.30529 5734 ft 215 kts 224°
2026-05-09 03:48 43.55984 -116.31430 5888 ft 244 kts 191°
2026-05-09 03:49 43.54235 -116.31174 6068 ft 267 kts 158°
2026-05-09 03:49 43.52714 -116.29565 6297 ft 290 kts 122°
2026-05-09 03:49 43.52104 -116.27920 6705 ft 293 kts 109°
2026-05-09 03:49 43.51284 -116.24331 7684 ft 299 kts 104°
2026-05-09 03:50 43.50722 -116.21547 8443 ft 304 kts 105°
2026-05-09 03:50 43.50129 -116.18729 9202 ft 309 kts 106°
2026-05-09 03:50 43.49489 -116.15863 9966 ft 315 kts 108°
2026-05-09 03:50 43.48809 -116.12954 10499 ft 328 kts 108°
2026-05-09 03:51 43.48322 -116.10930 10599 ft 344 kts 108°
2026-05-09 03:51 43.47529 -116.07704 10775 ft 368 kts 109°
2026-05-09 03:51 43.46676 -116.04297 11143 ft 382 kts 109°
2026-05-09 03:51 43.45500 -115.99667 11956 ft 390 kts 109°
2026-05-09 03:52 43.44592 -115.96122 12626 ft 395 kts 109°
2026-05-09 03:52 43.43971 -115.93704 13065 ft 399 kts 109°
2026-05-09 03:52 43.43039 -115.90082 13682 ft 404 kts 109°
2026-05-09 03:52 43.42093 -115.86414 14271 ft 409 kts 109°
2026-05-09 03:53 43.41134 -115.82702 14880 ft 413 kts 109°
2026-05-09 03:53 43.40164 -115.78953 15458 ft 418 kts 108°
2026-05-09 03:53 43.39199 -115.75227 16071 ft 421 kts 108°
2026-05-09 03:53 43.38212 -115.71425 16705 ft 424 kts 108°
2026-05-09 03:54 43.37214 -115.67583 17303 ft 428 kts 108°
2026-05-09 03:54 43.36206 -115.63710 17876 ft 432 kts 108°
2026-05-09 03:54 43.35188 -115.59808 18445 ft 436 kts 108°
2026-05-09 03:54 43.34161 -115.55872 18983 ft 439 kts 108°
2026-05-09 03:55 43.33124 -115.51909 19498 ft 441 kts 108°
2026-05-09 03:55 43.32084 -115.47933 20048 ft 444 kts 109°
2026-05-09 03:55 43.31035 -115.43939 20572 ft 446 kts 109°
2026-05-09 03:55 43.29979 -115.39924 21078 ft 449 kts 109°
2026-05-09 03:56 43.28776 -115.35949 21559 ft 452 kts 117°
2026-05-09 03:56 43.27175 -115.32226 22043 ft 455 kts 123°
2026-05-09 03:56 43.25459 -115.28557 22536 ft 457 kts 124°
2026-05-09 03:56 43.23715 -115.24893 23011 ft 460 kts 124°
2026-05-09 03:57 43.21987 -115.21262 23487 ft 462 kts 124°
2026-05-09 03:57 43.20232 -115.17551 23895 ft 464 kts 124°
2026-05-09 03:57 43.18480 -115.13824 24269 ft 467 kts 124°
2026-05-09 03:57 43.16718 -115.10056 24649 ft 469 kts 124°
2026-05-09 03:58 43.14956 -115.06281 25010 ft 472 kts 124°
2026-05-09 03:58 43.13181 -115.02473 25376 ft 475 kts 124°
2026-05-09 03:58 43.11395 -114.98647 25748 ft 477 kts 124°
2026-05-09 03:58 43.09602 -114.94810 26119 ft 479 kts 124°
2026-05-09 03:59 43.07800 -114.90959 26478 ft 482 kts 124°
2026-05-09 03:59 43.05985 -114.87089 26819 ft 484 kts 124°
2026-05-09 03:59 43.04161 -114.83203 27168 ft 486 kts 125°
2026-05-09 03:59 43.02349 -114.79349 27509 ft 488 kts 125°
2026-05-09 04:00 43.00508 -114.75439 27838 ft 490 kts 125°
2026-05-09 04:00 42.98658 -114.71514 28152 ft 492 kts 125°
2026-05-09 04:00 42.96801 -114.67581 28462 ft 495 kts 126°
2026-05-09 04:00 42.94926 -114.63616 28754 ft 496 kts 126°
2026-05-09 04:01 42.93048 -114.59646 29033 ft 498 kts 126°
2026-05-09 04:01 42.91163 -114.55669 29314 ft 501 kts 126°
2026-05-09 04:01 42.89266 -114.51673 29614 ft 502 kts 126°
2026-05-09 04:01 42.87372 -114.47685 30041 ft 501 kts 127°
2026-05-09 04:02 42.85481 -114.43710 30451 ft 498 kts 127°
2026-05-09 04:02 42.83597 -114.39752 30788 ft 498 kts 127°
2026-05-09 04:02 42.81710 -114.35797 31089 ft 498 kts 127°
2026-05-09 04:02 42.79821 -114.31844 31385 ft 498 kts 127°
2026-05-09 04:03 42.77928 -114.27887 31698 ft 497 kts 127°
2026-05-09 04:03 42.76041 -114.23948 32021 ft 496 kts 127°
2026-05-09 04:03 42.74180 -114.20066 32337 ft 495 kts 127°
2026-05-09 04:03 42.72300 -114.16153 32656 ft 494 kts 127°
2026-05-09 04:04 42.70424 -114.12251 32956 ft 493 kts 127°
2026-05-09 04:04 42.68534 -114.08330 32986 ft 497 kts 127°
2026-05-09 04:04 42.64741 -114.00469 33013 ft 497 kts 127°
2026-05-09 04:05 42.60975 -113.92672 33047 ft 491 kts 127°
2026-05-09 04:05 42.57109 -113.85059 33040 ft 485 kts 136°
2026-05-09 04:06 42.52379 -113.78638 33059 ft 480 kts 142°
2026-05-09 04:06 42.47519 -113.72419 33067 ft 481 kts 141°
2026-05-09 04:07 42.42714 -113.66097 33039 ft 482 kts 140°
2026-05-09 04:07 42.37957 -113.59742 33020 ft 484 kts 140°
2026-05-09 04:08 42.33149 -113.53327 33002 ft 486 kts 140°
2026-05-09 04:08 42.28308 -113.46897 32568 ft 490 kts 140°
2026-05-09 04:09 42.25846 -113.43640 31733 ft 495 kts 140°
2026-05-09 04:09 42.23418 -113.40428 31147 ft 492 kts 140°
2026-05-09 04:09 42.20985 -113.37212 30672 ft 487 kts 140°
2026-05-09 04:09 42.18576 -113.34029 30174 ft 483 kts 140°
2026-05-09 04:10 42.16179 -113.30867 29620 ft 479 kts 139°
2026-05-09 04:10 42.13806 -113.27740 29087 ft 474 kts 139°
2026-05-09 04:10 42.11461 -113.24652 28610 ft 469 kts 139°
2026-05-09 04:10 42.09139 -113.21598 28086 ft 464 kts 139°
2026-05-09 04:11 42.06842 -113.18580 27616 ft 459 kts 139°
2026-05-09 04:11 42.04563 -113.15589 27128 ft 455 kts 139°
2026-05-09 04:11 42.02327 -113.12658 26645 ft 452 kts 139°
2026-05-09 04:11 42.00057 -113.09686 26178 ft 447 kts 139°
2026-05-09 04:12 41.97836 -113.06780 25712 ft 444 kts 139°
2026-05-09 04:12 41.95662 -113.03939 25251 ft 440 kts 139°
2026-05-09 04:12 41.93444 -113.01044 24794 ft 437 kts 139°
2026-05-09 04:12 41.91297 -112.98244 24347 ft 434 kts 139°
2026-05-09 04:13 41.89132 -112.95422 23886 ft 432 kts 139°
2026-05-09 04:13 41.86978 -112.92619 23396 ft 430 kts 139°
2026-05-09 04:13 41.84832 -112.89829 22875 ft 427 kts 139°
2026-05-09 04:13 41.82707 -112.87067 22399 ft 424 kts 139°
2026-05-09 04:14 41.80593 -112.84324 21923 ft 421 kts 139°
2026-05-09 04:14 41.78496 -112.81604 21477 ft 417 kts 139°
2026-05-09 04:14 41.76412 -112.78904 21020 ft 414 kts 139°
2026-05-09 04:14 41.74377 -112.76269 20590 ft 411 kts 139°
2026-05-09 04:15 41.72322 -112.73613 20162 ft 408 kts 139°
2026-05-09 04:15 41.70286 -112.70983 19711 ft 406 kts 139°
2026-05-09 04:15 41.68257 -112.68363 19289 ft 403 kts 139°
2026-05-09 04:15 41.66243 -112.65767 18860 ft 402 kts 139°
2026-05-09 04:16 41.64232 -112.63177 18422 ft 400 kts 139°
2026-05-09 04:16 41.62229 -112.60599 17936 ft 399 kts 139°
2026-05-09 04:16 41.60234 -112.58032 17470 ft 397 kts 139°
2026-05-09 04:16 41.58249 -112.55479 17027 ft 394 kts 139°
2026-05-09 04:17 41.56279 -112.52949 16591 ft 392 kts 139°
2026-05-09 04:17 41.54338 -112.50460 16181 ft 389 kts 139°
2026-05-09 04:17 41.52392 -112.47982 15885 ft 384 kts 139°
2026-05-09 04:17 41.50480 -112.45522 15552 ft 381 kts 137°
2026-05-09 04:18 41.48626 -112.43007 15245 ft 379 kts 136°
2026-05-09 04:18 41.46790 -112.40481 14950 ft 377 kts 136°
2026-05-09 04:18 41.44971 -112.37982 14654 ft 374 kts 136°
2026-05-09 04:18 41.43162 -112.35514 14361 ft 371 kts 137°
2026-05-09 04:19 41.41356 -112.33063 14076 ft 369 kts 137°
2026-05-09 04:19 41.39556 -112.30632 13785 ft 367 kts 137°
2026-05-09 04:19 41.37766 -112.28221 13454 ft 366 kts 137°
2026-05-09 04:19 41.35978 -112.25818 13141 ft 364 kts 137°
2026-05-09 04:20 41.34192 -112.23421 12861 ft 365 kts 137°
2026-05-09 04:20 41.32403 -112.21020 12589 ft 366 kts 136°
2026-05-09 04:20 41.30615 -112.18624 12310 ft 364 kts 136°
2026-05-09 04:20 41.28855 -112.16264 12035 ft 362 kts 136°
2026-05-09 04:21 41.27087 -112.13896 11764 ft 357 kts 136°
2026-05-09 04:21 41.25354 -112.11577 11551 ft 349 kts 136°
2026-05-09 04:21 41.21984 -112.07100 11098 ft 335 kts 139°
2026-05-09 04:22 41.20137 -112.05519 11048 ft 320 kts 155°
2026-05-09 04:22 41.18177 -112.04210 11040 ft 312 kts 154°
2026-05-09 04:22 41.16253 -112.02894 11030 ft 308 kts 154°
2026-05-09 04:22 41.14358 -112.01696 11028 ft 295 kts 165°
2026-05-09 04:23 41.12336 -112.01257 10604 ft 296 kts 179°
2026-05-09 04:23 41.10290 -112.01079 10167 ft 302 kts 178°
2026-05-09 04:23 41.08181 -112.00871 9678 ft 305 kts 177°
2026-05-09 04:23 41.06070 -112.00639 9186 ft 304 kts 176°
2026-05-09 04:24 41.03970 -112.00398 8772 ft 301 kts 176°
2026-05-09 04:24 41.01904 -112.00157 8402 ft 293 kts 176°
2026-05-09 04:24 40.99909 -111.99924 7993 ft 283 kts 176°
2026-05-09 04:24 40.97976 -111.99698 7595 ft 271 kts 175°
2026-05-09 04:25 40.96162 -111.99485 7234 ft 253 kts 176°
2026-05-09 04:25 40.94488 -111.99287 6926 ft 237 kts 176°
2026-05-09 04:25 40.92893 -111.99101 6637 ft 223 kts 176°
2026-05-09 04:25 40.91391 -111.98928 6362 ft 211 kts 175°
2026-05-09 04:26 40.89960 -111.98762 6094 ft 201 kts 175°
2026-05-09 04:26 40.88599 -111.98605 5869 ft 192 kts 175°
2026-05-09 04:26 40.87294 -111.98454 5621 ft 184 kts 174°
2026-05-09 04:26 40.86062 -111.98311 5406 ft 171 kts 174°
2026-05-09 04:27 40.84903 -111.98176 5099 ft 162 kts 174°
2026-05-09 04:27 40.83814 -111.98053 4857 ft 155 kts 174°
2026-05-09 04:27 40.82750 -111.97927 4645 ft 153 kts 174°
2026-05-09 04:27 40.81697 -111.97801 4435 ft 155 kts 175°
2026-05-09 04:28 40.80634 -111.97681 4266 ft 152 kts 174°
2026-05-09 04:28 40.79644 -111.97567 4228 ft 127 kts 175°
2026-05-09 04:28 40.79032 -111.97497 4230 ft 64 kts 175°
2026-05-09 04:28 40.78695 -111.97464 4230 ft 34 kts 186°
2026-05-09 04:29 40.78514 -111.97533 4229 ft 18 kts 207°
2026-05-09 04:29 40.78482 -111.97559 4230 ft 0 kts 219°
2026-05-09 04:29 40.78479 -111.97562 4228 ft 2 kts 220°
2026-05-09 04:30 40.78456 -111.97608 4230 ft 10 kts 251°
2026-05-09 04:30 40.78448 -111.97700 4230 ft 12 kts 279°
2026-05-09 04:30 40.78526 -111.97754 4230 ft 17 kts 357°
2026-05-09 04:30 40.78663 -111.97768 4230 ft 21 kts 355°
2026-05-09 04:31 40.78750 -111.97843 4230 ft 16 kts 272°
2026-05-09 04:31 40.78738 -111.98002 4230 ft 19 kts 264°
2026-05-09 04:31 40.78726 -111.98175 4229 ft 19 kts 265°
2026-05-09 04:31 40.78715 -111.98344 4230 ft 18 kts 265°
2026-05-09 04:32 40.78704 -111.98507 4230 ft 17 kts 265°
2026-05-09 04:32 40.78694 -111.98660 4230 ft 14 kts 265°
2026-05-09 04:32 40.78659 -111.98722 4229 ft 9 kts 185°
2026-05-09 04:32 40.78622 -111.98717 4230 ft 0 kts 175°